Flag for U.S.A. Weather past 2 weeks in Virginia Beach, Virginia, U.S.A.

Now
79 °F

Partly sunny.


Feels Like: 82 °F
Forecast: 73 / 85 °F
Wind: 5 mph from Northwest

Location: Virginia Beach - Oceana

Current Time: Aug 31, 2015 at 3:56:22 PM

Latest Report: Aug 31, 2015 at 2:56 PM


Visibility: 10 mi

Pressure: 30.10 "Hg

Humidity: 74%

Dew point: 70 °F

Location of Virginia BeachLocation

Historic Weather in Virginia Beach — Graph

°F

Virginia Beach temperature yesterday

Maximum temperature yesterday: 87 °F (at 11:56 AM)
Minimum temperature yesterday: 67 °F (at 5:56 AM)
Average temperature yesterday: 77 °F

Past Weeks' High & Low Weather Summary

 TemperatureHumidityPressure
High91 °F (Aug 20, 1:56 PM)88% (Aug 20, 8:56 PM)30.24 "Hg (Aug 20, 8:56 PM)
Low62 °F (Aug 29, 6:56 AM)37% (Aug 28, 1:56 PM)29.87 "Hg (Aug 24, 7:56 PM)
Average79 °F67%30.03 "Hg
* Reported Aug 16 2:56 PM — Aug 31 2:56 PM, Virginia Beach, Weather by CustomWeather, © 2015

Note: Actual official high and low records may vary slightly from our data, if they occured in-between our weather recording intervals... More about our weather records

Advertising

Virginia Beach weather history for previous 24 hours

 ConditionsComfort  
Time TempWeatherWind HumidityBarometerVisibility
2:56 PM
Mon, Aug 31
79 °FPartly sunny.5 mph74%30.10 "Hg10 mi
1:56 PM76 °FLight rain. Partly sunny.6 mph85%30.09 "Hg10 mi
12:56 PM75 °FLight rain. Overcast.6 mph85%30.13 "Hg6 mi
11:56 AM76 °FLight rain. Mostly cloudy.9 mph82%30.15 "Hg7 mi
10:56 AM78 °FLight rain. Overcast.9 mph71%30.14 "Hg10 mi
9:56 AM80 °FMostly cloudy.5 mph69%30.13 "Hg10 mi
8:56 AM79 °FOvercast.No wind72%30.12 "Hg10 mi
7:56 AM77 °FPartly sunny.3 mph79%30.12 "Hg10 mi
6:56 AM75 °FOvercast.No wind85%30.11 "Hg10 mi
5:56 AM76 °FMostly cloudy.5 mph82%30.10 "Hg10 mi
4:56 AM76 °FMostly cloudy.5 mph85%30.10 "Hg10 mi
3:56 AM76 °FMostly cloudy.No wind82%30.10 "Hg10 mi
2:56 AM76 °FMostly cloudy.No wind82%30.10 "Hg10 mi
1:56 AM77 °FOvercast.6 mph79%30.11 "Hg10 mi
12:56 AM77 °FOvercast.5 mph79%30.11 "Hg10 mi
11:56 PM
Sun, Aug 30
77 °FOvercast.5 mph77%30.12 "Hg10 mi
10:56 PM77 °FMostly cloudy.5 mph71%30.12 "Hg10 mi
9:56 PM76 °FOvercast.No wind72%30.11 "Hg10 mi
8:56 PM78 °FOvercast.5 mph66%30.12 "Hg10 mi
7:56 PM79 °FMore clouds than sun.3 mph62%30.12 "Hg10 mi
6:56 PM80 °FBroken clouds.3 mph58%30.12 "Hg10 mi
4:56 PM81 °FOvercast.7 mph56%30.11 "Hg10 mi
3:56 PM83 °FBroken clouds.9 mph48%30.11 "Hg10 mi
Weather by CustomWeather, © 2015

See weather overviewHow to use our weather pages